Regional Weather Roundup
Issued by NWS

Home | Current Version | Previous Version | Text Only | Print | Product List | Glossary On
Versions: 1 2 3 4 5 6 7 8 9 10 11 12 13 14 15 16 17 18 19 20 21 22 23 24 25 26 27 28 29 30
000
ASUS45 KGTF 031810
RWRMT
MONTANA HOURLY WEATHER ROUNDUP
NATIONAL WEATHER SERVICE GREAT FALLS MT
1200 PM MDT SUN MAY 03 2015

NOTE: "FAIR" INDICATES FEW OR NO CLOUDS BELOW 12000 FEET WITH NO
SIGNIFICANT WEATHER AND/OR OBSTRUCTIONS TO VISIBILITY.

MTZ001>007-043-031900-
WEST OF THE DIVIDE

CITY           SKY/WX    TMP DP  RH WIND       PRES   REMARKS
KALISPELL      CLEAR     57  19  22 CALM      30.02S
MISSOULA       SUNNY     59  27  29 CALM      30.00F
BUTTE          SUNNY     56  23  27 VRB3      29.99F
EUREKA           N/A     54  19  26 N3        30.05F
HAMILTON         N/A     57  25  28 N10       29.98F
LIBBY            N/A     55  21  26 N6        30.03F
$$

MTZ008-052>055-031900-
SOUTHWEST MONTANA

CITY           SKY/WX    TMP DP  RH WIND       PRES   REMARKS
BOZEMAN        SUNNY     55  35  47 VRB5      29.99F
DILLON         SUNNY     55  29  36 NE6       29.98F
$$

MTZ009-010-012-014-046-048-049-054-031900-
EAST SLOPES AND CENTRAL MONTANA

CITY           SKY/WX    TMP DP  RH WIND       PRES   REMARKS
CUT BANK       SUNNY     53  24  32 VRB5G17   30.02S
GREAT FALLS    SUNNY     54  32  43 SE7       30.01F
MALMSTROM AFB  SUNNY     53  32  43 NE6       30.02F
HELENA         SUNNY     57  31  37 VRB3      29.99F
$$

MTZ011-013-016-021-045-047-050-051-031900-
NORTH CENTRAL MONTANA

CITY           SKY/WX    TMP DP  RH WIND       PRES   REMARKS
HAVRE          MOSUNNY   56  23  27 E7        30.05F
LEWISTOWN      SUNNY     56  31  38 E7        30.02F
CHINOOK          N/A     55  21  26 NE5       30.07S
FORT BENTON      N/A     59  30  33 NE5       30.03F
$$

MTZ017>020-022>042-056>058-061-062-031900-
EASTERN PLAINS

CITY           SKY/WX    TMP DP  RH WIND       PRES   REMARKS
BAKER          SUNNY     60  30  32 VRB6      30.05S
BILLINGS       MOSUNNY   57  27  31 E9        30.04S
GLASGOW        CLOUDY    55  26  32 NW10      30.08R
JORDAN           N/A     59  21  23 N5        30.06S
LIVINGSTON     SUNNY     56  34  43 E13G21    30.01S
MILES CITY     CLOUDY    58  31  35 E7        30.06S
SIDNEY         SUNNY     59  27  29 NW8G18    30.06S
WOLF POINT     SUNNY     61  25  25 NW12      30.06S
BIG TIMBER       N/A     54  28  37 E10G17    30.03F
FORSYTH          N/A     57  28  33 E6        30.06S
PLENTYWOOD       N/A     54  27  35 NW15G21   30.04S
POPLAR           N/A     57  25  28 W12G18    30.06F
$$

REGIONAL REPORTS...DAKOTAS

CITY           SKY/WX    TMP DP  RH WIND       PRES   REMARKS
WILLISTON      LGT RAIN  60  25  26 NW14      30.04S
MINOT          SUNNY     60  26  27 W18G29    29.99R
DICKINSON      SUNNY     60  28  29 NW13G20   30.02R
BEACH          CLOUDY    55  28  35 N7        30.07R
CROSBY         FAIR      57  28  33 NW18      30.03S
WATFORD CITY   FAIR      57  25  28 NW16      30.02S
BISMARCK       SUNNY     64  25  22 NW18G25   29.99S
GRAND FORKS    CLOUDY    64  29  26 NW16G23   29.90S
FARGO          PTSUNNY   63  32  31 N20G28    29.91R
BUFFALO SD       N/A     54  34  46 N10       30.00R
RAPID CITY     SUNNY     67  37  33 N15G23    30.01R
$$

REGIONAL REPORTS...WYOMING/IDAHO/WASHINGTON

CITY           SKY/WX    TMP DP  RH WIND       PRES   REMARKS
GILLETTE       SUNNY     61  36  39 E9        30.03R
SHERIDAN       CLOUDY    57  35  43 CALM      30.04S
BUFFALO WY     PTSUNNY   58  38  47 MISG      30.05S
CODY           MOSUNNY   54  34  47 NE12G17   30.01S
YELLOWSTONE LA   N/A     55  21  26 W9        30.07R
IDAHO FALLS    PTSUNNY   66  34  30 S10       29.97R
SALMON         MOSUNNY   57  27  30 CALM      29.93F
BOISE          SUNNY     65  36  34 NW6       29.91R
SPOKANE        MOSUNNY   60  24  25 NE8       30.00S
$$

REGIONAL REPORTS...ALBERTA

CITY           SKY/WX    TMP DP  RH WIND       PRES   REMARKS
EDMONTON       PTSUNNY   50  34  53 W3        30.04S
LETHBRIDGE     MOSUNNY   52  30  43 NE7       30.06S
MEDICINE HAT   PTSUNNY   52  28  40 N7        30.08S
$$

REGIONAL REPORTS...SASKATCHEWAN

CITY           SKY/WX    TMP DP  RH WIND       PRES   REMARKS
SWIFT CURRENT  SUNNY     50  28  43 NW12      30.05S
REGINA         PTSUNNY   52  32  46 NW18      30.03R
SASKATOON      MOSUNNY   54  30  40 W14G22    30.03S
$$



USA.gov is the U.S. government's official web portal to all federal, state and local government web resources and services.